Hourly Data Report for October 29, 2014

All times are specified in Local Standard Time (LST). Add 1 hour to adjust for Daylight Saving Time where and when it is observed.

PANGNIRTUNG
NUNAVUT

66°08'36.300" N
65°42'40.500" W
22.60 m
2403049
71826
WXP

Download Data

Hourly Data (October 2014)
Hourly Data Report for October 29, 2014
Temp Definition
°C
Dew Point Temp Definition
°C
Rel Hum Definition
%
Wind Dir Definition
10's deg

Wind Spd Definition
km/h
Visibility Definition
km
Stn Press Definition
kPa
Hmdx Definition


Wind Chill Definition


Weather Definition


TIME
00:00 -1.5 -5.3 76 11 18   100.66   -7 LegendNANA
01:00 -2.5 -4.1 89 8 7   100.66   -5 LegendNANA
02:00 -1.5 -4.6 79 7 10   100.63   -5 LegendNANA
03:00 -1.6 -4.3 82 7 6   100.59   -4 LegendNANA
04:00 -1.8 -4.0 85 4 11   100.56   -6 LegendNANA
05:00 -1.9 -3.9 86 4 10   100.54   -6 LegendNANA
06:00 -2.2 -3.4 92 3 5   100.53   -4 LegendNANA
07:00 -2.0 -3.2 92 5 6   100.52   -4 LegendNANA
08:00 -1.9 -2.9 93 7 8   100.48   -5 LegendNANA
09:00 -1.9 -2.9 93 7 7   100.47   -5 LegendNANA
10:00 -2.0 -2.4 97 5 8   100.44   -5 LegendNANA
11:00 -1.8 -2.3 97 12 7   100.42   -4 LegendNANA
12:00 -1.7 -2.0 98 10 7   100.42   -4 LegendNANA
13:00 -1.8 -2.1 98 6 9   100.41   -5 LegendNANA
14:00 -1.8 -1.9 99 7 7   100.42   -4 LegendNANA
15:00 -1.6 -1.9 98 0 1   100.43   -2 LegendNANA
16:00 -2.1 -2.3 99 24 8   100.42   -5 LegendNANA
17:00 -2.1 -2.5 97 22 5   100.40   -4 LegendNANA
18:00 -2.2 -2.4 98 0 1   100.37   -3 LegendNANA
19:00 -1.9 -1.9 100 13 4   100.36   -3 LegendNANA
20:00 -2.0 -2.1 99 16 2   100.33   -3 LegendNANA
21:00 -2.1 -2.3 99 4 2   100.31   -3 LegendNANA
22:00 -2.1 -2.4 98 0 1   100.28   -2 LegendNANA
23:00 -1.7 -2.1 97 7 5   100.26   -4 LegendNANA

Notes on Data Quality.

Legend

  • E = Estimated
  • M = Missing
  • NA = Not Available
  • ‡ = Partner data that is not subject to review by the National Climate Archives
Date modified: